Tracking 26492 objects as of 8-Dec-2022
HD Live streaming from Space Station
objects crossing your sky now

NAVSTAR 64 (USA 206)

Track NAVSTAR 64 (USA 206) now!
NAVSTAR 64 (USA 206) is classified as:


NORAD ID: 35752
Int'l Code: 2009-043A
Perigee: 20,038.3 km
Apogee: 20,338.4 km
Inclination: 55.2 °
Period: 717.9 minutes
Semi major axis: 26559 km
RCS: 6.3 m2 (large)
Launch date: August 17, 2009
Source: United States (US)
Launch site: AIR FORCE EASTERN TEST RANGE (AFETR)
PRN: 5
aabbcc
Your satellite tracking list
Your tracking list is empty




NASA's NSSDC Master Catalog

Two Line Element Set (TLE):
1 35752U 09043A   22341.36615955 -.00000071  00000-0  00000-0 0  9999
2 35752  55.2087  78.5761 0056503  64.4877 349.4106  2.00575200 97532
Source of the keplerian elements: AFSPC